Time,TemperatureF,DewpointF,PressureIn,WindDirection,WindDirectionDegrees,WindSpeedMPH,WindSpeedGustMPH,Humidity,HourlyPrecipIn,Conditions,Clouds,dailyrainin,SoftwareType,DateUTC
2013-04-17 00:13:00,70.5,63.7,29.91,NNW,337,0.0,-999.0,79,-99.99,,,0.00,Acu-Link.com,2013-04-17 04:13:00,
2013-04-17 00:28:00,70.5,64.0,29.91,WNW,292,0.0,-999.0,80,-99.99,,,0.00,Acu-Link.com,2013-04-17 04:28:00,
2013-04-17 00:44:00,70.5,64.4,29.91,West,270,0.0,-999.0,81,-99.99,,,0.00,Acu-Link.com,2013-04-17 04:44:00,
2013-04-17 00:59:00,69.3,63.9,29.91,NE,45,0.0,-999.0,83,-99.99,,,0.00,Acu-Link.com,2013-04-17 04:59:00,
2013-04-17 01:14:00,69.3,63.6,29.90,WNW,292,0.0,-999.0,82,-99.99,,,0.00,Acu-Link.com,2013-04-17 05:14:00,
2013-04-17 01:29:00,68.4,63.4,29.90,ESE,112,0.0,-999.0,84,-99.99,,,0.00,Acu-Link.com,2013-04-17 05:29:00,
2013-04-17 01:44:00,68.7,63.7,29.89,NNE,22,0.0,-999.0,84,-99.99,,,0.00,Acu-Link.com,2013-04-17 05:44:00,
2013-04-17 02:00:00,68.0,63.6,29.89,WSW,247,0.0,-999.0,86,-99.99,,,0.00,Acu-Link.com,2013-04-17 06:00:00,
2013-04-17 02:15:00,68.2,63.5,29.89,WNW,292,0.0,-999.0,85,-99.99,,,0.00,Acu-Link.com,2013-04-17 06:15:00,
2013-04-17 02:30:00,67.5,63.2,29.88,SW,225,0.0,-999.0,86,-99.99,,,0.00,Acu-Link.com,2013-04-17 06:30:00,
2013-04-17 02:46:00,67.1,63.1,29.89,SW,225,0.0,-999.0,87,-99.99,,,0.00,Acu-Link.com,2013-04-17 06:46:00,
2013-04-17 03:01:00,66.6,62.6,29.89,North,0,0.0,-999.0,87,-99.99,,,0.00,Acu-Link.com,2013-04-17 07:01:00,
2013-04-17 03:32:00,66.2,62.5,29.88,WNW,292,0.0,-999.0,88,-99.99,,,0.00,Acu-Link.com,2013-04-17 07:32:00,
2013-04-17 03:47:00,65.8,62.5,29.88,ENE,67,0.0,-999.0,89,-99.99,,,0.00,Acu-Link.com,2013-04-17 07:47:00,
2013-04-17 04:02:00,65.7,63.0,29.88,SW,225,0.0,-999.0,91,-99.99,,,0.00,Acu-Link.com,2013-04-17 08:02:00,
2013-04-17 04:17:00,66.0,63.3,29.89,ESE,112,0.0,-999.0,91,-99.99,,,0.00,Acu-Link.com,2013-04-17 08:17:00,
2013-04-17 04:32:00,67.8,64.4,29.88,NW,315,2.2,-999.0,89,-99.99,,,0.00,Acu-Link.com,2013-04-17 08:32:00,
2013-04-17 04:48:00,66.4,63.7,29.89,SSW,202,0.0,-999.0,91,-99.99,,,0.00,Acu-Link.com,2013-04-17 08:48:00,
2013-04-17 05:03:00,66.0,63.6,29.89,SE,135,0.0,-999.0,92,-99.99,,,0.00,Acu-Link.com,2013-04-17 09:03:00,
2013-04-17 05:18:00,65.7,63.3,29.89,ENE,67,0.0,-999.0,92,-99.99,,,0.00,Acu-Link.com,2013-04-17 09:18:00,
2013-04-17 05:34:00,65.3,63.2,29.89,West,270,0.0,-999.0,93,-99.99,,,0.00,Acu-Link.com,2013-04-17 09:34:00,
2013-04-17 05:49:00,66.4,63.7,29.89,NNE,22,1.1,-999.0,91,-99.99,,,0.00,Acu-Link.com,2013-04-17 09:49:00,
2013-04-17 06:04:00,65.7,62.7,29.89,WSW,247,0.0,-999.0,90,-99.99,,,0.00,Acu-Link.com,2013-04-17 10:04:00,
2013-04-17 06:20:00,64.9,62.2,29.89,SW,225,0.0,-999.0,91,-99.99,,,0.00,Acu-Link.com,2013-04-17 10:20:00,
2013-04-17 06:35:00,64.8,62.4,29.90,SW,225,0.0,-999.0,92,-99.99,,,0.00,Acu-Link.com,2013-04-17 10:35:00,
2013-04-17 06:50:00,64.9,62.8,29.91,SSW,202,0.0,-999.0,93,-99.99,,,0.00,Acu-Link.com,2013-04-17 10:50:00,
2013-04-17 07:05:00,64.8,62.7,29.92,SSW,202,0.0,-999.0,93,-99.99,,,0.00,Acu-Link.com,2013-04-17 11:05:00,
2013-04-17 07:21:00,65.5,64.0,29.93,NNW,337,1.7,-999.0,95,-99.99,,,0.00,Acu-Link.com,2013-04-17 11:21:00,
2013-04-17 07:51:00,68.2,66.1,29.95,West,270,0.0,-999.0,93,-99.99,,,0.00,Acu-Link.com,2013-04-17 11:51:00,
2013-04-17 08:07:00,70.7,67.9,29.95,ESE,112,2.2,-999.0,91,-99.99,,,0.00,Acu-Link.com,2013-04-17 12:07:00,
2013-04-17 08:22:00,74.1,68.9,29.94,West,270,0.0,-999.0,84,-99.99,,,0.00,Acu-Link.com,2013-04-17 12:22:00,
2013-04-17 08:37:00,76.3,69.7,29.94,West,270,1.1,-999.0,80,-99.99,,,0.00,Acu-Link.com,2013-04-17 12:37:00,
2013-04-17 08:53:00,77.0,69.6,29.94,West,270,0.0,-999.0,78,-99.99,,,0.00,Acu-Link.com,2013-04-17 12:53:00,
2013-04-17 09:08:00,80.1,69.8,29.93,WNW,292,2.2,-999.0,71,-99.99,,,0.00,Acu-Link.com,2013-04-17 13:08:00,
2013-04-17 09:23:00,81.9,69.8,29.93,SE,135,3.7,-999.0,67,-99.99,,,0.00,Acu-Link.com,2013-04-17 13:23:00,
2013-04-17 09:38:00,77.4,67.2,29.93,South,180,3.7,-999.0,71,-99.99,,,0.00,Acu-Link.com,2013-04-17 13:38:00,
2013-04-17 09:53:00,79.9,68.8,29.93,ENE,67,2.2,-999.0,69,-99.99,,,0.00,Acu-Link.com,2013-04-17 13:53:00,
2013-04-17 10:08:00,79.9,67.9,29.93,WNW,292,1.7,-999.0,67,-99.99,,,0.00,Acu-Link.com,2013-04-17 14:08:00,
2013-04-17 10:23:00,79.3,67.4,29.93,NNW,337,1.7,-999.0,67,-99.99,,,0.00,Acu-Link.com,2013-04-17 14:23:00,
2013-04-17 10:39:00,81.0,67.7,29.92,ENE,67,1.7,-999.0,64,-99.99,,,0.00,Acu-Link.com,2013-04-17 14:39:00,
2013-04-17 10:54:00,82.6,68.7,29.92,SE,135,5.8,-999.0,63,-99.99,,,0.00,Acu-Link.com,2013-04-17 14:54:00,
2013-04-17 11:09:00,82.4,68.0,29.91,NW,315,4.2,-999.0,62,-99.99,,,0.00,Acu-Link.com,2013-04-17 15:09:00,
2013-04-17 11:25:00,84.6,68.7,29.91,SSE,157,3.7,-999.0,59,-99.99,,,0.00,Acu-Link.com,2013-04-17 15:25:00,
2013-04-17 11:40:00,85.1,69.6,29.91,SE,135,4.7,-999.0,60,-99.99,,,0.00,Acu-Link.com,2013-04-17 15:40:00,
2013-04-17 11:55:00,81.3,66.5,29.90,SE,135,6.3,-999.0,61,-99.99,,,0.00,Acu-Link.com,2013-04-17 15:55:00,
2013-04-17 12:10:00,83.3,67.4,29.90,East,90,3.7,-999.0,59,-99.99,,,0.00,Acu-Link.com,2013-04-17 16:10:00,
2013-04-17 12:26:00,83.5,67.1,29.90,ESE,112,3.7,-999.0,58,-99.99,,,0.00,Acu-Link.com,2013-04-17 16:26:00,
2013-04-17 12:41:00,84.9,68.4,29.89,NE,45,2.2,-999.0,58,-99.99,,,0.00,Acu-Link.com,2013-04-17 16:41:00,
2013-04-17 12:56:00,85.6,68.6,29.89,NNW,337,2.7,-999.0,57,-99.99,,,0.00,Acu-Link.com,2013-04-17 16:56:00,
2013-04-17 13:11:00,86.5,68.9,29.87,SSE,157,2.7,-999.0,56,-99.99,,,0.00,Acu-Link.com,2013-04-17 17:11:00,
2013-04-17 13:26:00,87.3,68.0,29.86,West,270,3.2,-999.0,53,-99.99,,,0.00,Acu-Link.com,2013-04-17 17:26:00,
2013-04-17 13:41:00,88.3,70.1,29.85,ESE,112,5.8,-999.0,55,-99.99,,,0.00,Acu-Link.com,2013-04-17 17:41:00,
2013-04-17 13:58:00,86.5,68.4,29.85,West,270,2.2,-999.0,55,-99.99,,,0.00,Acu-Link.com,2013-04-17 17:58:00,
2013-04-17 14:13:00,86.9,67.7,29.84,ESE,112,3.2,-999.0,53,-99.99,,,0.00,Acu-Link.com,2013-04-17 18:13:00,
2013-04-17 14:28:00,86.2,67.6,29.84,South,180,5.8,-999.0,54,-99.99,,,0.00,Acu-Link.com,2013-04-17 18:28:00,
2013-04-17 14:43:00,86.7,67.5,29.83,South,180,7.8,-999.0,53,-99.99,,,0.00,Acu-Link.com,2013-04-17 18:43:00,
2013-04-17 14:59:00,89.2,67.5,29.82,NW,315,2.2,-999.0,49,-99.99,,,0.00,Acu-Link.com,2013-04-17 18:59:00,
2013-04-17 15:14:00,84.6,66.1,29.82,ENE,67,3.2,-999.0,54,-99.99,,,0.00,Acu-Link.com,2013-04-17 19:14:00,
2013-04-17 15:29:00,86.2,65.3,29.81,NNE,22,2.7,-999.0,50,-99.99,,,0.00,Acu-Link.com,2013-04-17 19:29:00,
2013-04-17 15:44:00,83.7,64.7,29.79,West,270,2.2,-999.0,53,-99.99,,,0.00,Acu-Link.com,2013-04-17 19:44:00,
2013-04-17 16:00:00,85.3,65.1,29.79,ESE,112,2.7,-999.0,51,-99.99,,,0.00,Acu-Link.com,2013-04-17 20:00:00,
2013-04-17 16:15:00,86.5,65.0,29.78,SSE,157,2.2,-999.0,49,-99.99,,,0.00,Acu-Link.com,2013-04-17 20:15:00,
2013-04-17 16:30:00,86.9,66.0,29.77,WNW,292,3.2,-999.0,50,-99.99,,,0.00,Acu-Link.com,2013-04-17 20:30:00,
2013-04-17 16:45:00,84.0,64.5,29.78,ESE,112,4.7,-999.0,52,-99.99,,,0.00,Acu-Link.com,2013-04-17 20:45:00,
2013-04-17 17:01:00,85.3,65.1,29.77,WSW,247,2.7,-999.0,51,-99.99,,,0.00,Acu-Link.com,2013-04-17 21:01:00,
2013-04-17 17:16:00,86.0,65.2,29.78,ESE,112,5.3,-999.0,50,-99.99,,,0.00,Acu-Link.com,2013-04-17 21:16:00,
2013-04-17 17:32:00,84.9,64.2,29.78,ENE,67,2.2,-999.0,50,-99.99,,,0.00,Acu-Link.com,2013-04-17 21:32:00,
2013-04-17 17:47:00,84.9,64.7,29.77,ESE,112,3.7,-999.0,51,-99.99,,,0.00,Acu-Link.com,2013-04-17 21:47:00,
2013-04-17 18:02:00,84.6,65.6,29.78,West,270,2.7,-999.0,53,-99.99,,,0.00,Acu-Link.com,2013-04-17 22:02:00,
2013-04-17 18:17:00,84.9,66.4,29.79,North,0,4.7,-999.0,54,-99.99,,,0.00,Acu-Link.com,2013-04-17 22:17:00,
2013-04-17 18:32:00,82.8,66.0,29.79,ESE,112,5.3,-999.0,57,-99.99,,,0.00,Acu-Link.com,2013-04-17 22:32:00,
2013-04-17 18:48:00,82.6,65.8,29.79,NNE,22,3.2,-999.0,57,-99.99,,,0.00,Acu-Link.com,2013-04-17 22:48:00,
2013-04-17 19:03:00,80.8,65.1,29.80,SE,135,2.7,-999.0,59,-99.99,,,0.00,Acu-Link.com,2013-04-17 23:03:00,
2013-04-17 19:18:00,79.7,64.6,29.80,SSW,202,3.2,-999.0,60,-99.99,,,0.00,Acu-Link.com,2013-04-17 23:18:00,
2013-04-17 19:34:00,78.8,63.7,29.80,WSW,247,2.7,-999.0,60,-99.99,,,0.00,Acu-Link.com,2013-04-17 23:34:00,
2013-04-17 19:49:00,77.9,63.3,29.81,SE,135,3.2,-999.0,61,-99.99,,,0.00,Acu-Link.com,2013-04-17 23:49:00,
2013-04-17 20:04:00,77.4,63.3,29.80,South,180,2.7,-999.0,62,-99.99,,,0.00,Acu-Link.com,2013-04-18 00:04:00,
2013-04-17 20:19:00,76.8,63.7,29.81,North,0,2.2,-999.0,64,-99.99,,,0.00,Acu-Link.com,2013-04-18 00:19:00,
2013-04-17 20:35:00,75.7,63.1,29.81,NE,45,2.2,-999.0,65,-99.99,,,0.00,Acu-Link.com,2013-04-18 00:35:00,
2013-04-17 20:50:00,74.8,62.7,29.81,ESE,112,1.7,-999.0,66,-99.99,,,0.00,Acu-Link.com,2013-04-18 00:50:00,
2013-04-17 21:05:00,74.3,62.6,29.82,SSE,157,3.7,-999.0,67,-99.99,,,0.00,Acu-Link.com,2013-04-18 01:05:00,
2013-04-17 21:20:00,73.9,63.1,29.83,SE,135,3.7,-999.0,69,-99.99,,,0.00,Acu-Link.com,2013-04-18 01:20:00,
2013-04-17 21:51:00,73.4,63.0,29.84,NE,45,1.7,-999.0,70,-99.99,,,0.00,Acu-Link.com,2013-04-18 01:51:00,
2013-04-17 22:06:00,72.9,63.3,29.84,North,0,1.7,-999.0,72,-99.99,,,0.00,Acu-Link.com,2013-04-18 02:06:00,
2013-04-17 22:22:00,72.1,63.3,29.85,NW,315,0.0,-999.0,74,-99.99,,,0.00,Acu-Link.com,2013-04-18 02:22:00,
2013-04-17 22:37:00,72.0,63.6,29.85,SE,135,0.0,-999.0,75,-99.99,,,0.00,Acu-Link.com,2013-04-18 02:37:00,
2013-04-17 22:52:00,71.4,63.4,29.85,SW,225,0.0,-999.0,76,-99.99,,,0.00,Acu-Link.com,2013-04-18 02:52:00,
2013-04-17 23:08:00,70.9,63.3,29.84,ESE,112,0.0,-999.0,77,-99.99,,,0.00,Acu-Link.com,2013-04-18 03:08:00,
2013-04-17 23:23:00,71.1,63.9,29.85,SW,225,0.0,-999.0,78,-99.99,,,0.00,Acu-Link.com,2013-04-18 03:23:00,
2013-04-17 23:38:00,70.7,63.5,29.84,NE,45,1.7,-999.0,78,-99.99,,,0.00,Acu-Link.com,2013-04-18 03:38:00,
2013-04-17 23:54:00,69.4,63.3,29.84,SSE,157,1.7,-999.0,81,-99.99,,,0.00,Acu-Link.com,2013-04-18 03:54:00,